This is the latest recevied weather packets stored in our database for station/object KI5MKI. If no packets are shown the sender has not sent any weather packets the latest 10 day(s).
| Time | Temp. | Humidity | Pressure | Rain* | Wind** | Luminosity | Snow |
|---|---|---|---|---|---|---|---|
| 1777744394 | 22.22° C | 40% | 1022 hPa | 0 mm | - | 942 W/m² | - |
| 1777744091 | 22.22° C | 40% | 1022.1 hPa | 0 mm | - | 939 W/m² | - |
| 1777743789 | 22.22° C | 35% | 1022.3 hPa | 0 mm | - | 934 W/m² | - |
| 1777743485 | 22.22° C | 37% | 1022.4 hPa | 0 mm | - | 929 W/m² | - |
| 1777743182 | 22.78° C | 33% | 1022.4 hPa | 0 mm | - | 928 W/m² | - |
| 1777742880 | 21.67° C | 37% | 1022.3 hPa | 0 mm | - | 920 W/m² | - |
| 1777742576 | 22.22° C | 36% | 1022.3 hPa | 0 mm | - | 909 W/m² | - |
| 1777742272 | 22.22° C | 39% | 1022.4 hPa | 0 mm | - | 904 W/m² | - |
| 1777741969 | 22.22° C | 39% | 1022.5 hPa | 0 mm | - | 884 W/m² | - |
| 1777741666 | 21.67° C | 40% | 1022.4 hPa | 0 mm | - | 868 W/m² | - |
| 1777741363 | 21.67° C | 42% | 1022.5 hPa | 0 mm | - | 829 W/m² | - |
| 1777741059 | 21.67° C | 39% | 1022.5 hPa | 0 mm | - | 815 W/m² | - |
| 1777740756 | 21.67° C | 37% | 1022.4 hPa | 0 mm | - | 805 W/m² | - |
| 1777740453 | 21.67° C | 38% | 1022.5 hPa | 0 mm | - | 779 W/m² | - |
| 1777740151 | 21.11° C | 40% | 1022.5 hPa | 0 mm | - | 751 W/m² | - |
| 1777739846 | 21.11° C | 40% | 1022.5 hPa | 0 mm | - | 740 W/m² | - |
| 1777739543 | 20.56° C | 41% | 1022.5 hPa | 0 mm | - | 731 W/m² | - |
| 1777739240 | 21.11° C | 45% | 1022.3 hPa | 0 mm | - | 731 W/m² | - |
| 1777738937 | 20.56° C | 45% | 1022.4 hPa | 0 mm | - | 720 W/m² | - |
| 1777738634 | 21.11° C | 44% | 1022.5 hPa | 0 mm | - | 725 W/m² | - |
| 1777738330 | 21.67° C | 45% | 1022.4 hPa | 0 mm | - | 718 W/m² | - |
| 1777738029 | 20.56° C | 45% | 1022.6 hPa | 0 mm | - | 691 W/m² | - |
| 1777737728 | 20.56° C | 47% | 1022.4 hPa | 0 mm | - | 686 W/m² | - |
| 1777737425 | 20.56° C | 46% | 1022.3 hPa | 0 mm | - | 678 W/m² | - |
| 1777737117 | 20° C | 50% | 1022.3 hPa | 0 mm | - | 669 W/m² | - |
* Rain latest hour (hover to see other rain measurements)
** Current wind speed in m/s (hover to see current wind gust speed)